TimeEST,TemperatureF,Dew PointF,Humidity,Sea Level PressureIn,VisibilityMPH,Wind Direction,Wind SpeedMPH,Gust SpeedMPH,PrecipitationIn,Events,Conditions,WindDirDegrees,DateUTC
12:56 AM,46.0,41.0,83,30.02,10.0,Calm,Calm,-,N/A,,Overcast,0,2012-11-05 05:56:00
1:56 AM,45.0,39.9,82,30.02,10.0,WNW,3.5,-,N/A,,Overcast,300,2012-11-05 06:56:00
2:56 AM,45.0,37.9,76,30.03,10.0,NW,3.5,-,N/A,,Overcast,320,2012-11-05 07:56:00
3:56 AM,44.1,35.1,71,30.03,10.0,Calm,Calm,-,N/A,,Mostly Cloudy,0,2012-11-05 08:56:00
4:56 AM,42.1,35.1,76,30.05,10.0,Calm,Calm,-,N/A,,Overcast,0,2012-11-05 09:56:00
5:31 AM,42.8,37.4,81,30.06,10.0,NNE,3.5,-,N/A,,Overcast,20,2012-11-05 10:31:00
5:56 AM,42.1,33.1,70,30.07,10.0,ENE,5.8,-,N/A,,Overcast,60,2012-11-05 10:56:00
6:56 AM,39.0,33.1,79,30.08,10.0,Calm,Calm,-,N/A,,Clear,0,2012-11-05 11:56:00
7:56 AM,42.1,32.0,67,30.10,10.0,Variable,6.9,-,N/A,,Mostly Cloudy,0,2012-11-05 12:56:00
8:56 AM,44.1,30.9,60,30.12,10.0,Variable,5.8,-,N/A,,Partly Cloudy,0,2012-11-05 13:56:00
9:56 AM,46.9,30.0,52,30.11,10.0,North,6.9,-,N/A,,Clear,10,2012-11-05 14:56:00
10:56 AM,50.0,30.0,46,30.09,10.0,Variable,4.6,-,N/A,,Clear,0,2012-11-05 15:56:00
11:56 AM,52.0,30.9,45,30.07,10.0,Variable,3.5,-,N/A,,Clear,0,2012-11-05 16:56:00
12:56 PM,53.1,30.9,43,30.05,10.0,Variable,5.8,-,N/A,,Clear,0,2012-11-05 17:56:00
1:56 PM,55.0,30.0,38,30.04,10.0,North,5.8,-,N/A,,Clear,360,2012-11-05 18:56:00
2:56 PM,55.0,30.0,38,30.03,10.0,NW,5.8,-,N/A,,Clear,320,2012-11-05 19:56:00
3:56 PM,55.0,30.0,38,30.04,10.0,North,3.5,-,N/A,,Clear,360,2012-11-05 20:56:00
4:56 PM,48.9,32.0,52,30.05,10.0,Calm,Calm,-,N/A,,Clear,0,2012-11-05 21:56:00
5:56 PM,43.0,34.0,71,30.06,10.0,Calm,Calm,-,N/A,,Clear,0,2012-11-05 22:56:00
6:56 PM,42.1,34.0,73,30.09,10.0,Calm,Calm,-,N/A,,Clear,0,2012-11-05 23:56:00
7:56 PM,41.0,32.0,70,30.11,10.0,Calm,Calm,-,N/A,,Clear,0,2012-11-06 00:56:00
8:56 PM,39.0,33.1,79,30.12,10.0,Calm,Calm,-,N/A,,Clear,0,2012-11-06 01:56:00
9:56 PM,39.0,32.0,76,30.13,10.0,Calm,Calm,-,N/A,,Clear,0,2012-11-06 02:56:00
10:56 PM,37.9,30.9,76,30.12,10.0,Calm,Calm,-,N/A,,Clear,0,2012-11-06 03:56:00
11:56 PM,37.9,30.9,76,30.12,10.0,Calm,Calm,-,N/A,,Clear,0,2012-11-06 04:56:00